| time (UTC) | temp F | wind direction | speed MPH | gust MPH | rain 1hr in | rain 24hr in | rain mn in | humidity % | barometer mb |
| 20260902082516 | 73 | 0 | 0.0 | 0.0 | 0.00 | 0.06 | 0.00 | 93 | 1013.2 |
| 20260902082016 | 73 | 0 | 0.0 | 0.0 | 0.00 | 0.06 | 0.00 | 93 | 1013.2 |
| 20260902081535 | 73 | 0 | 0.0 | 0.0 | 0.00 | 0.06 | 0.00 | 93 | 1013.1 |
| 20260902081016 | 74 | 0 | 0.0 | 0.0 | 0.00 | 0.06 | 0.00 | 93 | 1013.0 |
| 20260902080518 | 74 | 0 | 0.0 | 0.0 | 0.00 | 0.06 | 0.00 | 93 | 1013.0 |
| 20260902080034 | 74 | 0 | 0.0 | 0.0 | 0.00 | 0.06 | 0.00 | 93 | 1013.0 |
| 20260902075518 | 74 | 0 | 0.0 | 1.0 | 0.00 | 0.06 | 0.00 | 93 | 1013.0 |
| 20260902075017 | 74 | 0 | 0.0 | 1.0 | 0.00 | 0.06 | 0.00 | 93 | 1013.1 |
| 20260902074537 | 74 | 0 | 0.0 | 2.0 | 0.00 | 0.06 | 0.00 | 93 | 1013.2 |
| 20260902074019 | 75 | 0 | 0.0 | 2.0 | 0.00 | 0.06 | 0.00 | 93 | 1013.2 |
| 20260902073518 | 75 | 0 | 0.0 | 2.0 | 0.00 | 0.06 | 0.00 | 93 | 1013.1 |
| 20260902073039 | 75 | 0 | 0.0 | 0.0 | 0.00 | 0.06 | 0.00 | 93 | 1013.1 |
| 20260902072521 | 75 | 0 | 0.0 | 0.0 | 0.00 | 0.06 | 0.00 | 93 | 1013.2 |
| 20260902072018 | 75 | 0 | 0.0 | 1.0 | 0.00 | 0.06 | 0.00 | 93 | 1013.1 |
| 20260902071534 | 75 | 0 | 0.0 | 6.0 | 0.00 | 0.06 | 0.00 | 93 | 1013.1 |
| 20260902071019 | 76 | 0 | 0.0 | 9.0 | 0.00 | 0.06 | 0.00 | 93 | 1013.2 |
| 20260902070518 | 75 | 220 | 2.0 | 9.0 | 0.00 | 0.06 | 0.00 | 94 | 1013.2 |
| 20260902070037 | 75 | 5 | 5.0 | 9.0 | 0.00 | 0.06 | 0.00 | 93 | 1013.3 |
| 20260902065516 | 75 | 0 | 0.0 | 0.0 | 0.00 | 0.06 | 0.00 | 93 | 1013.2 |
| 20260902065021 | 76 | 0 | 0.0 | 0.0 | 0.00 | 0.06 | 0.00 | 93 | 1013.0 |
| 20260902064538 | 76 | 0 | 0.0 | 0.0 | 0.00 | 0.06 | 0.00 | 93 | 1012.9 |
| 20260902064018 | 76 | 0 | 0.0 | 0.0 | 0.00 | 0.06 | 0.00 | 93 | 1013.0 |
| 20260902063519 | 76 | 0 | 0.0 | 0.0 | 0.00 | 0.06 | 0.00 | 93 | 1013.0 |
| 20260902063034 | 76 | 0 | 0.0 | 0.0 | 0.00 | 0.06 | 0.00 | 93 | 1012.8 |
| 20260902062519 | 76 | 0 | 0.0 | 0.0 | 0.00 | 0.06 | 0.00 | 93 | 1012.9 |
| 20260902062019 | 76 | 0 | 0.0 | 0.0 | 0.00 | 0.06 | 0.00 | 93 | 1013.1 |
| 20260902061016 | 76 | 0 | 0.0 | 0.0 | 0.00 | 0.06 | 0.00 | 93 | 1013.3 |
| 20260902060516 | 76 | 0 | 0.0 | 0.0 | 0.00 | 0.06 | 0.00 | 93 | 1013.4 |
| 20260902060040 | 76 | 0 | 0.0 | 0.0 | 0.00 | 0.06 | 0.00 | 93 | 1013.5 |
| 20260902055517 | 76 | 0 | 0.0 | 0.0 | 0.00 | 0.06 | 0.00 | 93 | 1013.4 |
| 20260902055018 | 76 | 0 | 0.0 | 0.0 | 0.00 | 0.06 | 0.00 | 93 | 1013.4 |
| 20260902054544 | 76 | 0 | 0.0 | 0.0 | 0.00 | 0.06 | 0.00 | 93 | 1013.4 |
| 20260902054015 | 76 | 0 | 0.0 | 0.0 | 0.00 | 0.06 | 0.00 | 93 | 1013.5 |
| 20260902053519 | 76 | 0 | 0.0 | 0.0 | 0.00 | 0.06 | 0.00 | 93 | 1013.4 |
| 20260902053038 | 76 | 0 | 0.0 | 0.0 | 0.00 | 0.06 | 0.00 | 93 | 1013.3 |
| 20260902052519 | 76 | 0 | 0.0 | 0.0 | 0.00 | 0.06 | 0.00 | 92 | 1013.2 |
| 20260902052018 | 76 | 0 | 0.0 | 0.0 | 0.00 | 0.06 | 0.00 | 92 | 1013.2 |
| 20260902051537 | 76 | 0 | 0.0 | 0.0 | 0.00 | 0.06 | 0.00 | 92 | 1013.2 |
| 20260902051019 | 76 | 0 | 0.0 | 0.0 | 0.00 | 0.06 | 0.00 | 91 | 1013.1 |
| 20260902050516 | 76 | 0 | 0.0 | 0.0 | 0.00 | 0.06 | 0.00 | 91 | 1013.0 |
| 20260902050034 | 77 | 0 | 0.0 | 0.0 | 0.00 | 0.06 | 0.00 | 91 | 1012.8 |
| 20260902045515 | 77 | 0 | 0.0 | 0.0 | 0.00 | 0.06 | 0.06 | 91 | 1012.8 |
| 20260902045019 | 77 | 0 | 0.0 | 0.0 | 0.00 | 0.06 | 0.06 | 91 | 1013.0 |
| 20260902044539 | 77 | 0 | 0.0 | 0.0 | 0.00 | 0.06 | 0.06 | 91 | 1013.2 |
| 20260902044017 | 77 | 0 | 0.0 | 0.0 | 0.00 | 0.06 | 0.06 | 91 | 1013.2 |
| 20260902043517 | 77 | 0 | 0.0 | 0.0 | 0.00 | 0.06 | 0.06 | 91 | 1013.2 |
| 20260902043043 | 77 | 0 | 0.0 | 0.0 | 0.00 | 0.06 | 0.06 | 91 | 1013.1 |
| 20260902042520 | 77 | 0 | 0.0 | 0.0 | 0.00 | 0.06 | 0.06 | 92 | 1013.0 |
| 20260902042020 | 77 | 0 | 0.0 | 3.0 | 0.00 | 0.06 | 0.06 | 92 | 1012.9 |
| 20260902041539 | 77 | 0 | 1.0 | 3.0 | 0.00 | 0.06 | 0.06 | 92 | 1012.9 |
| 20260902041020 | 77 | 225 | 0.0 | 3.0 | 0.00 | 0.06 | 0.06 | 92 | 1013.0 |
| 20260902040518 | 77 | 192 | 0.0 | 3.0 | 0.00 | 0.06 | 0.06 | 92 | 1012.9 |
| 20260902040045 | 77 | 195 | 0.0 | 2.0 | 0.00 | 0.06 | 0.06 | 92 | 1012.9 |
| 20260902035516 | 76 | 0 | 0.0 | 0.0 | 0.00 | 0.06 | 0.06 | 92 | 1012.8 |
| 20260902035015 | 76 | 0 | 0.0 | 0.0 | 0.00 | 0.06 | 0.06 | 92 | 1012.7 |
| 20260902034537 | 76 | 0 | 0.0 | 0.0 | 0.00 | 0.06 | 0.06 | 91 | 1012.8 |
| 20260902034015 | 76 | 0 | 0.0 | 0.0 | 0.00 | 0.06 | 0.06 | 91 | 1012.7 |
| 20260902033518 | 76 | 0 | 0.0 | 0.0 | 0.00 | 0.06 | 0.06 | 91 | 1012.7 |
| 20260902033035 | 76 | 0 | 0.0 | 0.0 | 0.00 | 0.06 | 0.06 | 91 | 1012.8 |
| 20260902032520 | 76 | 0 | 0.0 | 0.0 | 0.00 | 0.06 | 0.06 | 91 | 1012.8 |
| 20260902032018 | 77 | 0 | 0.0 | 0.0 | 0.00 | 0.06 | 0.06 | 90 | 1012.9 |
| 20260902031540 | 77 | 0 | 0.0 | 0.0 | 0.00 | 0.06 | 0.06 | 90 | 1013.0 |
| 20260902031016 | 77 | 0 | 0.0 | 0.0 | 0.00 | 0.06 | 0.06 | 90 | 1013.1 |
| 20260902030518 | 77 | 0 | 0.0 | 0.0 | 0.00 | 0.06 | 0.06 | 90 | 1013.1 |
| 20260902030036 | 77 | 0 | 0.0 | 0.0 | 0.00 | 0.06 | 0.06 | 90 | 1013.1 |
| 20260902025516 | 77 | 0 | 0.0 | 0.0 | 0.00 | 0.06 | 0.06 | 90 | 1013.2 |
| 20260902025016 | 77 | 0 | 0.0 | 0.0 | 0.00 | 0.06 | 0.06 | 90 | 1013.0 |
| 20260902024539 | 77 | 0 | 0.0 | 0.0 | 0.00 | 0.06 | 0.06 | 90 | 1013.1 |
| 20260902024021 | 77 | 0 | 0.0 | 0.0 | 0.00 | 0.06 | 0.06 | 90 | 1013.1 |
| 20260902023519 | 77 | 0 | 0.0 | 0.0 | 0.00 | 0.06 | 0.06 | 90 | 1013.2 |
| 20260902023041 | 77 | 0 | 0.0 | 0.0 | 0.00 | 0.06 | 0.06 | 90 | 1013.2 |
| 20260902022517 | 77 | 0 | 0.0 | 0.0 | 0.00 | 0.06 | 0.06 | 90 | 1013.2 |
| 20260902022019 | 77 | 0 | 0.0 | 0.0 | 0.00 | 0.06 | 0.06 | 89 | 1013.4 |
| 20260902021534 | 77 | 0 | 0.0 | 0.0 | 0.00 | 0.06 | 0.06 | 89 | 1013.5 |
| 20260902021018 | 77 | 0 | 0.0 | 0.0 | 0.00 | 0.06 | 0.06 | 89 | 1013.6 |
| 20260902020516 | 77 | 0 | 0.0 | 0.0 | 0.00 | 0.06 | 0.06 | 89 | 1013.6 |
| 20260902020039 | 77 | 0 | 0.0 | 0.0 | 0.00 | 0.06 | 0.06 | 89 | 1013.4 |
| 20260902015520 | 77 | 0 | 0.0 | 0.0 | 0.00 | 0.06 | 0.06 | 89 | 1013.5 |
| 20260902015015 | 77 | 0 | 0.0 | 0.0 | 0.00 | 0.06 | 0.06 | 89 | 1013.5 |
| 20260902014535 | 77 | 0 | 0.0 | 0.0 | 0.00 | 0.06 | 0.06 | 89 | 1013.4 |
| 20260902014022 | 77 | 0 | 0.0 | 0.0 | 0.00 | 0.06 | 0.06 | 88 | 1013.3 |
| 20260902013520 | 77 | 0 | 0.0 | 0.0 | 0.00 | 0.06 | 0.06 | 88 | 1013.2 |
| 20260902013038 | 77 | 0 | 0.0 | 0.0 | 0.00 | 0.06 | 0.06 | 88 | 1013.1 |
| 20260902012523 | 77 | 0 | 0.0 | 0.0 | 0.00 | 0.06 | 0.06 | 88 | 1013.2 |
| 20260902012017 | 77 | 0 | 0.0 | 0.0 | 0.00 | 0.06 | 0.06 | 88 | 1013.0 |
| 20260902011535 | 77 | 0 | 0.0 | 0.0 | 0.00 | 0.06 | 0.06 | 87 | 1012.9 |
| 20260902011018 | 78 | 0 | 0.0 | 0.0 | 0.00 | 0.06 | 0.06 | 87 | 1012.9 |
| 20260902010517 | 78 | 0 | 0.0 | 0.0 | 0.00 | 0.06 | 0.06 | 87 | 1013.0 |
| 20260902010035 | 78 | 0 | 0.0 | 0.0 | 0.00 | 0.06 | 0.06 | 87 | 1013.0 |
| 20260902005518 | 78 | 0 | 0.0 | 0.0 | 0.00 | 0.06 | 0.06 | 86 | 1012.9 |
| 20260902005021 | 78 | 0 | 0.0 | 0.0 | 0.00 | 0.06 | 0.06 | 86 | 1012.9 |
| 20260902004539 | 78 | 0 | 0.0 | 0.0 | 0.00 | 0.06 | 0.06 | 85 | 1012.9 |
| 20260902004021 | 79 | 0 | 0.0 | 0.0 | 0.00 | 0.06 | 0.06 | 85 | 1012.8 |
| 20260902003519 | 79 | 0 | 0.0 | 0.0 | 0.00 | 0.06 | 0.06 | 85 | 1012.9 |
| 20260902003041 | 79 | 0 | 0.0 | 0.0 | 0.00 | 0.06 | 0.06 | 84 | 1012.8 |
| 20260902002518 | 79 | 0 | 0.0 | 2.0 | 0.00 | 0.06 | 0.06 | 84 | 1012.8 |
| 20260902002019 | 79 | 0 | 0.0 | 2.0 | 0.00 | 0.06 | 0.06 | 84 | 1012.8 |
| 20260902001553 | 79 | 0 | 0.0 | 0.0 | 0.00 | 0.06 | 0.06 | 84 | 1012.8 |
| 20260902001019 | 79 | 0 | 0.0 | 0.0 | 0.00 | 0.06 | 0.06 | 84 | 1012.8 |
| 20260902000516 | 79 | 0 | 0.0 | 0.0 | 0.00 | 0.06 | 0.06 | 84 | 1012.7 |
| 20260902000040 | 79 | 0 | 0.0 | 0.0 | 0.00 | 0.06 | 0.06 | 84 | 1012.7 |
| 20260901235518 | 79 | 0 | 0.0 | 0.0 | 0.00 | 0.06 | 0.06 | 84 | 1012.7 |
| 20260901235020 | 80 | 0 | 0.0 | 0.0 | 0.00 | 0.06 | 0.06 | 84 | 1012.8 |
| 20260901234534 | 80 | 0 | 0.0 | 0.0 | 0.00 | 0.06 | 0.06 | 84 | 1012.9 |
| 20260901234024 | 80 | 0 | 0.0 | 0.0 | 0.00 | 0.06 | 0.06 | 84 | 1012.8 |
| 20260901233516 | 80 | 0 | 0.0 | 0.0 | 0.00 | 0.06 | 0.06 | 84 | 1012.8 |
| 20260901233038 | 80 | 0 | 0.0 | 0.0 | 0.00 | 0.06 | 0.06 | 84 | 1012.7 |
| 20260901232516 | 80 | 0 | 0.0 | 0.0 | 0.00 | 0.06 | 0.06 | 83 | 1012.5 |
| 20260901232016 | 80 | 0 | 0.0 | 2.0 | 0.00 | 0.06 | 0.06 | 82 | 1012.4 |
| 20260901231535 | 80 | 0 | 0.0 | 2.0 | 0.00 | 0.06 | 0.06 | 82 | 1012.2 |
| 20260901231018 | 80 | 0 | 0.0 | 2.0 | 0.00 | 0.06 | 0.06 | 82 | 1012.0 |
| 20260901230516 | 80 | 143 | 1.0 | 3.0 | 0.00 | 0.06 | 0.06 | 81 | 1012.1 |
| 20260901230036 | 80 | 143 | 0.0 | 3.0 | 0.00 | 0.06 | 0.06 | 81 | 1012.4 |
| 20260901225518 | 80 | 143 | 1.0 | 3.0 | 0.00 | 0.06 | 0.06 | 80 | 1012.5 |
| 20260901225021 | 80 | 173 | 1.0 | 4.0 | 0.00 | 0.06 | 0.06 | 80 | 1012.7 |
| 20260901224534 | 80 | 177 | 1.0 | 4.0 | 0.00 | 0.06 | 0.06 | 80 | 1012.7 |
| 20260901224023 | 80 | 0 | 0.0 | 7.0 | 0.00 | 0.06 | 0.06 | 80 | 1012.8 |
| 20260901223520 | 80 | 0 | 1.0 | 7.0 | 0.00 | 0.06 | 0.06 | 79 | 1013.0 |
| 20260901223041 | 80 | 275 | 2.0 | 7.0 | 0.00 | 0.06 | 0.06 | 79 | 1013.2 |
| 20260901222516 | 80 | 265 | 1.0 | 5.0 | 0.00 | 0.06 | 0.06 | 81 | 1013.1 |
| 20260901222018 | 79 | 255 | 1.0 | 5.0 | 0.01 | 0.06 | 0.06 | 83 | 1013.0 |
| 20260901221544 | 79 | 247 | 0.0 | 5.0 | 0.01 | 0.06 | 0.06 | 83 | 1013.0 |
| 20260901221016 | 79 | 290 | 1.0 | 6.0 | 0.01 | 0.06 | 0.06 | 82 | 1013.2 |
| 20260901220515 | 79 | 243 | 1.0 | 6.0 | 0.01 | 0.06 | 0.06 | 81 | 1013.1 |
| 20260901220041 | 79 | 0 | 1.0 | 6.0 | 0.01 | 0.06 | 0.06 | 79 | 1013.1 |
| 20260901215516 | 79 | 245 | 2.0 | 6.0 | 0.01 | 0.06 | 0.06 | 78 | 1013.1 |
| 20260901215021 | 79 | 0 | 2.0 | 8.0 | 0.01 | 0.06 | 0.06 | 79 | 1013.1 |
| 20260901214535 | 79 | 251 | 3.0 | 8.0 | 0.01 | 0.06 | 0.06 | 78 | 1013.1 |
| 20260901214017 | 79 | 243 | 1.0 | 4.0 | 0.01 | 0.06 | 0.06 | 81 | 1013.1 |
| 20260901213516 | 79 | 238 | 1.0 | 8.0 | 0.01 | 0.06 | 0.06 | 81 | 1013.1 |
| 20260901213035 | 78 | 0 | 1.0 | 8.0 | 0.02 | 0.06 | 0.06 | 83 | 1013.1 |
| 20260901212518 | 78 | 252 | 2.0 | 8.0 | 0.02 | 0.06 | 0.06 | 83 | 1013.1 |
| 20260901212020 | 79 | 232 | 4.0 | 8.0 | 0.01 | 0.05 | 0.05 | 83 | 1013.2 |
| 20260901211537 | 79 | 219 | 1.0 | 8.0 | 0.01 | 0.05 | 0.05 | 83 | 1013.2 |
| 20260901211017 | 79 | 220 | 2.0 | 7.0 | 0.01 | 0.05 | 0.05 | 83 | 1013.3 |
| 20260901210522 | 79 | 215 | 2.0 | 7.0 | 0.03 | 0.05 | 0.05 | 83 | 1013.2 |
| 20260901210038 | 79 | 260 | 2.0 | 7.0 | 0.05 | 0.05 | 0.05 | 82 | 1013.1 |
| 20260901205519 | 80 | 279 | 3.0 | 9.0 | 0.05 | 0.05 | 0.05 | 82 | 1013.2 |
| 20260901205027 | 80 | 256 | 4.0 | 9.0 | 0.05 | 0.05 | 0.05 | 84 | 1013.0 |
| 20260901204536 | 80 | 207 | 2.0 | 8.0 | 0.05 | 0.05 | 0.05 | 86 | 1013.1 |
| 20260901204016 | 81 | 193 | 1.0 | 4.0 | 0.05 | 0.05 | 0.05 | 86 | 1013.2 |
| 20260901203520 | 81 | 0 | 0.0 | 4.0 | 0.05 | 0.05 | 0.05 | 85 | 1013.2 |
| 20260901203038 | 81 | 0 | 1.0 | 4.0 | 0.04 | 0.04 | 0.04 | 84 | 1013.2 |
| 20260901202517 | 82 | 167 | 0.0 | 7.0 | 0.04 | 0.04 | 0.04 | 83 | 1013.2 |
| 20260901202018 | 82 | 184 | 1.0 | 7.0 | 0.04 | 0.04 | 0.04 | 81 | 1013.2 |
| 20260901201535 | 83 | 229 | 2.0 | 8.0 | 0.04 | 0.04 | 0.04 | 79 | 1013.4 |
| 20260901201021 | 84 | 152 | 1.0 | 9.0 | 0.04 | 0.04 | 0.04 | 78 | 1013.6 |
| 20260901200520 | 84 | 246 | 5.0 | 9.0 | 0.00 | 0.00 | 0.00 | 75 | 1013.9 |
| 20260901200039 | 85 | 230 | 4.0 | 9.0 | 0.00 | 0.00 | 0.00 | 74 | 1013.8 |
| 20260901195518 | 85 | 314 | 2.0 | 8.0 | 0.00 | 0.00 | 0.00 | 75 | 1013.4 |
| 20260901195021 | 85 | 188 | 2.0 | 8.0 | 0.00 | 0.00 | 0.00 | 73 | 1013.0 |
| 20260901194536 | 85 | 286 | 2.0 | 7.0 | 0.00 | 0.00 | 0.00 | 72 | 1013.1 |
| 20260901194017 | 86 | 198 | 3.0 | 11.0 | 0.00 | 0.00 | 0.00 | 72 | 1013.2 |
| 20260901193518 | 86 | 193 | 4.0 | 12.0 | 0.00 | 0.00 | 0.00 | 71 | 1013.4 |
| 20260901193036 | 86 | 215 | 6.0 | 12.0 | 0.00 | 0.00 | 0.00 | 69 | 1013.5 |
| 20260901192519 | 87 | 232 | 5.0 | 12.0 | 0.00 | 0.00 | 0.00 | 70 | 1013.8 |
| 20260901192016 | 87 | 218 | 3.0 | 12.0 | 0.00 | 0.00 | 0.00 | 70 | 1013.7 |
| 20260901191552 | 88 | 223 | 5.0 | 10.0 | 0.00 | 0.00 | 0.00 | 68 | 1013.6 |
| 20260901191019 | 88 | 174 | 5.0 | 12.0 | 0.00 | 0.00 | 0.00 | 68 | 1013.6 |
| 20260901190523 | 88 | 194 | 5.0 | 12.0 | 0.00 | 0.00 | 0.00 | 69 | 1013.6 |
| 20260901190037 | 88 | 269 | 3.0 | 11.0 | 0.00 | 0.00 | 0.00 | 70 | 1013.4 |
| 20260901185524 | 88 | 211 | 5.0 | 11.0 | 0.00 | 0.00 | 0.00 | 71 | 1013.4 |
| 20260901185017 | 89 | 232 | 4.0 | 12.0 | 0.00 | 0.00 | 0.00 | 70 | 1013.4 |
| 20260901184544 | 89 | 214 | 5.0 | 12.0 | 0.00 | 0.00 | 0.00 | 69 | 1013.4 |
| 20260901184018 | 89 | 196 | 5.0 | 12.0 | 0.00 | 0.00 | 0.00 | 71 | 1013.4 |
| 20260901183516 | 89 | 232 | 5.0 | 12.0 | 0.00 | 0.00 | 0.00 | 70 | 1013.5 |
| 20260901183047 | 89 | 190 | 4.0 | 11.0 | 0.00 | 0.00 | 0.00 | 70 | 1013.4 |
| 20260901182516 | 89 | 203 | 5.0 | 11.0 | 0.00 | 0.00 | 0.00 | 69 | 1013.4 |
| 20260901182015 | 88 | 225 | 3.0 | 9.0 | 0.00 | 0.00 | 0.00 | 69 | 1013.3 |
| 20260901181540 | 88 | 163 | 5.0 | 9.0 | 0.00 | 0.00 | 0.00 | 67 | 1013.4 |
| 20260901181021 | 89 | 162 | 4.0 | 10.0 | 0.00 | 0.00 | 0.00 | 67 | 1013.3 |
| 20260901180521 | 88 | 196 | 4.0 | 10.0 | 0.00 | 0.00 | 0.00 | 69 | 1013.4 |
| 20260901180038 | 88 | 196 | 4.0 | 10.0 | 0.00 | 0.00 | 0.00 | 70 | 1013.4 |
| 20260901175523 | 88 | 171 | 3.0 | 10.0 | 0.00 | 0.00 | 0.00 | 70 | 1013.5 |
| 20260901175022 | 88 | 204 | 4.0 | 10.0 | 0.00 | 0.00 | 0.00 | 73 | 1013.4 |
| 20260901174546 | 88 | 245 | 4.0 | 14.0 | 0.00 | 0.00 | 0.00 | 72 | 1013.4 |
| 20260901174018 | 88 | 269 | 6.0 | 14.0 | 0.00 | 0.00 | 0.00 | 73 | 1013.6 |
| 20260901173519 | 88 | 176 | 3.0 | 9.0 | 0.00 | 0.00 | 0.00 | 74 | 1013.7 |
| 20260901173050 | 88 | 236 | 3.0 | 12.0 | 0.00 | 0.00 | 0.00 | 74 | 1013.8 |
| 20260901172520 | 87 | 143 | 4.0 | 12.0 | 0.00 | 0.00 | 0.00 | 77 | 1013.8 |
| 20260901172020 | 87 | 181 | 5.0 | 10.0 | 0.00 | 0.00 | 0.00 | 75 | 1013.8 |
| 20260901171539 | 87 | 127 | 3.0 | 8.0 | 0.00 | 0.00 | 0.00 | 76 | 1013.7 |
| 20260901171019 | 87 | 233 | 3.0 | 8.0 | 0.00 | 0.00 | 0.00 | 77 | 1013.9 |
| 20260901170516 | 87 | 245 | 3.0 | 8.0 | 0.00 | 0.00 | 0.00 | 77 | 1013.9 |
| 20260901170044 | 86 | 245 | 2.0 | 6.0 | 0.00 | 0.00 | 0.00 | 76 | 1013.8 |
| 20260901165521 | 87 | 222 | 2.0 | 6.0 | 0.00 | 0.00 | 0.00 | 76 | 1013.7 |
| 20260901165021 | 86 | 205 | 2.0 | 7.0 | 0.00 | 0.00 | 0.00 | 78 | 1013.7 |
| 20260901164542 | 86 | 154 | 3.0 | 7.0 | 0.00 | 0.00 | 0.00 | 79 | 1013.7 |
| 20260901164020 | 85 | 253 | 1.0 | 5.0 | 0.00 | 0.00 | 0.00 | 79 | 1013.8 |
| 20260901163523 | 84 | 249 | 2.0 | 5.0 | 0.00 | 0.00 | 0.00 | 80 | 1013.8 |
| 20260901163036 | 84 | 259 | 2.0 | 5.0 | 0.00 | 0.00 | 0.00 | 80 | 1013.8 |
| 20260901162519 | 84 | 297 | 1.0 | 6.0 | 0.00 | 0.00 | 0.00 | 81 | 1013.7 |
| 20260901162019 | 84 | 118 | 2.0 | 7.0 | 0.00 | 0.00 | 0.00 | 80 | 1013.9 |
| 20260901161552 | 84 | 199 | 2.0 | 7.0 | 0.00 | 0.00 | 0.00 | 81 | 1013.9 |
| 20260901161016 | 84 | 178 | 1.0 | 6.0 | 0.00 | 0.00 | 0.00 | 81 | 1014.1 |
| 20260901160523 | 84 | 190 | 2.0 | 5.0 | 0.00 | 0.00 | 0.00 | 80 | 1014.3 |
| 20260901160038 | 84 | 170 | 1.0 | 4.0 | 0.00 | 0.00 | 0.00 | 79 | 1014.3 |
| 20260901155518 | 84 | 167 | 1.0 | 4.0 | 0.00 | 0.00 | 0.00 | 79 | 1014.2 |
| 20260901155019 | 84 | 193 | 0.0 | 3.0 | 0.00 | 0.00 | 0.00 | 79 | 1014.1 |
| 20260901154551 | 84 | 0 | 0.0 | 5.0 | 0.00 | 0.00 | 0.00 | 79 | 1014.1 |
| 20260901154021 | 84 | 236 | 1.0 | 5.0 | 0.00 | 0.00 | 0.00 | 79 | 1014.0 |
| 20260901153527 | 84 | 173 | 1.0 | 5.0 | 0.00 | 0.00 | 0.00 | 79 | 1014.0 |
| 20260901153043 | 84 | 0 | 0.0 | 4.0 | 0.00 | 0.00 | 0.00 | 78 | 1014.0 |
| 20260901152519 | 84 | 234 | 0.0 | 4.0 | 0.00 | 0.00 | 0.00 | 78 | 1014.1 |
| 20260901152017 | 85 | 209 | 1.0 | 4.0 | 0.00 | 0.00 | 0.00 | 78 | 1014.0 |
| 20260901151540 | 84 | 159 | 1.0 | 3.0 | 0.00 | 0.00 | 0.00 | 79 | 1013.9 |
| 20260901151019 | 84 | 259 | 1.0 | 4.0 | 0.00 | 0.00 | 0.00 | 81 | 1013.9 |
| 20260901150518 | 83 | 0 | 1.0 | 5.0 | 0.00 | 0.00 | 0.00 | 81 | 1013.8 |
| 20260901150041 | 83 | 250 | 1.0 | 5.0 | 0.00 | 0.00 | 0.00 | 83 | 1014.0 |
| 20260901145519 | 82 | 165 | 2.0 | 5.0 | 0.00 | 0.00 | 0.00 | 82 | 1014.0 |
| 20260901145018 | 82 | 263 | 2.0 | 5.0 | 0.00 | 0.00 | 0.00 | 82 | 1014.0 |
| 20260901144546 | 82 | 219 | 2.0 | 4.0 | 0.00 | 0.00 | 0.00 | 82 | 1013.9 |
| 20260901144022 | 82 | 186 | 0.0 | 3.0 | 0.00 | 0.00 | 0.00 | 83 | 1013.9 |
| 20260901143517 | 81 | 0 | 1.0 | 5.0 | 0.00 | 0.00 | 0.00 | 83 | 1014.0 |
| 20260901143045 | 81 | 174 | 1.0 | 5.0 | 0.00 | 0.00 | 0.00 | 83 | 1013.9 |
| 20260901142519 | 81 | 241 | 3.0 | 6.0 | 0.00 | 0.00 | 0.00 | 83 | 1013.9 |
| 20260901142018 | 80 | 232 | 2.0 | 7.0 | 0.00 | 0.00 | 0.00 | 85 | 1014.0 |
| 20260901141547 | 80 | 238 | 1.0 | 7.0 | 0.00 | 0.00 | 0.00 | 85 | 1014.1 |
| 20260901141018 | 79 | 192 | 2.0 | 5.0 | 0.00 | 0.00 | 0.00 | 87 | 1014.1 |
| 20260901140517 | 79 | 171 | 2.0 | 5.0 | 0.00 | 0.00 | 0.00 | 87 | 1014.0 |
| 20260901140038 | 78 | 0 | 1.0 | 5.0 | 0.00 | 0.00 | 0.00 | 88 | 1014.0 |
| 20260901135519 | 78 | 219 | 1.0 | 5.0 | 0.00 | 0.00 | 0.00 | 89 | 1014.0 |
| 20260901135021 | 77 | 178 | 1.0 | 5.0 | 0.00 | 0.00 | 0.00 | 90 | 1014.0 |
| 20260901134535 | 77 | 206 | 1.0 | 5.0 | 0.00 | 0.00 | 0.00 | 90 | 1014.0 |
| 20260901134018 | 76 | 0 | 0.0 | 5.0 | 0.00 | 0.00 | 0.00 | 90 | 1014.0 |
| 20260901133518 | 76 | 205 | 3.0 | 6.0 | 0.00 | 0.00 | 0.00 | 91 | 1013.9 |
| 20260901133037 | 76 | 184 | 2.0 | 6.0 | 0.00 | 0.00 | 0.00 | 92 | 1014.0 |
| 20260901132521 | 76 | 244 | 1.0 | 6.0 | 0.00 | 0.00 | 0.00 | 93 | 1013.9 |
| 20260901132021 | 75 | 216 | 2.0 | 6.0 | 0.00 | 0.00 | 0.00 | 93 | 1013.9 |
| 20260901131539 | 75 | 168 | 1.0 | 4.0 | 0.00 | 0.00 | 0.00 | 94 | 1014.0 |
| 20260901131023 | 74 | 252 | 1.0 | 4.0 | 0.00 | 0.00 | 0.00 | 94 | 1014.0 |
| 20260901130520 | 74 | 250 | 0.0 | 4.0 | 0.00 | 0.00 | 0.00 | 94 | 1013.9 |
| 20260901130035 | 74 | 0 | 0.0 | 5.0 | 0.00 | 0.00 | 0.00 | 95 | 1014.0 |
| 20260901125519 | 74 | 0 | 0.0 | 5.0 | 0.00 | 0.03 | 0.00 | 95 | 1014.0 |
| 20260901125016 | 74 | 215 | 1.0 | 4.0 | 0.00 | 0.03 | 0.00 | 95 | 1014.0 |
| 20260901124536 | 73 | 217 | 0.0 | 4.0 | 0.00 | 0.03 | 0.00 | 95 | 1014.0 |
| 20260901124018 | 73 | 194 | 0.0 | 1.0 | 0.00 | 0.03 | 0.00 | 95 | 1014.1 |
| 20260901123518 | 73 | 0 | 0.0 | 0.0 | 0.00 | 0.03 | 0.00 | 95 | 1014.0 |
| 20260901123040 | 73 | 0 | 0.0 | 0.0 | 0.00 | 0.03 | 0.00 | 95 | 1013.9 |
| 20260901122521 | 73 | 0 | 0.0 | 0.0 | 0.00 | 0.03 | 0.00 | 95 | 1014.0 |
| 20260901122021 | 72 | 0 | 0.0 | 0.0 | 0.00 | 0.03 | 0.00 | 95 | 1013.9 |
| 20260901121538 | 72 | 0 | 0.0 | 0.0 | 0.00 | 0.03 | 0.00 | 95 | 1013.8 |
| 20260901121020 | 72 | 0 | 0.0 | 0.0 | 0.00 | 0.03 | 0.00 | 95 | 1013.7 |
| 20260901120519 | 72 | 0 | 0.0 | 0.0 | 0.00 | 0.03 | 0.00 | 95 | 1013.8 |
| 20260901120035 | 71 | 0 | 0.0 | 0.0 | 0.00 | 0.03 | 0.00 | 95 | 1013.8 |
| 20260901115520 | 71 | 0 | 0.0 | 0.0 | 0.00 | 0.03 | 0.00 | 95 | 1013.7 |
| 20260901115020 | 71 | 0 | 0.0 | 0.0 | 0.00 | 0.03 | 0.00 | 95 | 1013.5 |
| 20260901114548 | 71 | 0 | 0.0 | 0.0 | 0.00 | 0.03 | 0.00 | 94 | 1013.4 |
| 20260901114019 | 71 | 0 | 0.0 | 0.0 | 0.00 | 0.03 | 0.00 | 94 | 1013.2 |
| 20260901113519 | 71 | 0 | 0.0 | 0.0 | 0.00 | 0.03 | 0.00 | 94 | 1013.3 |
| 20260901113037 | 71 | 0 | 0.0 | 0.0 | 0.00 | 0.03 | 0.00 | 94 | 1013.1 |
| 20260901112520 | 71 | 0 | 0.0 | 0.0 | 0.00 | 0.03 | 0.00 | 94 | 1012.9 |
| 20260901112015 | 71 | 0 | 0.0 | 0.0 | 0.00 | 0.03 | 0.00 | 94 | 1012.9 |
| 20260901111541 | 71 | 0 | 0.0 | 0.0 | 0.00 | 0.03 | 0.00 | 94 | 1012.9 |
| 20260901111020 | 71 | 0 | 0.0 | 0.0 | 0.00 | 0.03 | 0.00 | 94 | 1012.8 |
| 20260901110517 | 71 | 0 | 0.0 | 0.0 | 0.00 | 0.03 | 0.00 | 93 | 1012.8 |
| 20260901110035 | 71 | 0 | 0.0 | 0.0 | 0.00 | 0.03 | 0.00 | 93 | 1012.8 |
| 20260901105519 | 71 | 0 | 0.0 | 0.0 | 0.00 | 0.25 | 0.00 | 93 | 1012.8 |
| 20260901105017 | 72 | 0 | 0.0 | 0.0 | 0.00 | 0.25 | 0.00 | 93 | 1012.8 |
| 20260901104534 | 72 | 0 | 0.0 | 0.0 | 0.00 | 0.25 | 0.00 | 93 | 1012.8 |
| 20260901104019 | 72 | 0 | 0.0 | 0.0 | 0.00 | 0.25 | 0.00 | 94 | 1012.9 |
| 20260901103517 | 72 | 0 | 0.0 | 0.0 | 0.00 | 0.25 | 0.00 | 93 | 1012.7 |
| 20260901103038 | 72 | 0 | 0.0 | 0.0 | 0.00 | 0.25 | 0.00 | 94 | 1012.7 |
| 20260901102516 | 72 | 0 | 0.0 | 0.0 | 0.00 | 0.25 | 0.00 | 94 | 1012.7 |
| 20260901102021 | 72 | 0 | 0.0 | 2.0 | 0.00 | 0.25 | 0.00 | 93 | 1012.7 |
| 20260901101539 | 72 | 0 | 0.0 | 2.0 | 0.00 | 0.25 | 0.00 | 93 | 1012.7 |
| 20260901101022 | 71 | 211 | 0.0 | 2.0 | 0.00 | 0.25 | 0.00 | 93 | 1012.7 |
| 20260901100517 | 71 | 0 | 0.0 | 1.0 | 0.00 | 0.25 | 0.00 | 93 | 1012.7 |
| 20260901100034 | 71 | 0 | 0.0 | 1.0 | 0.00 | 0.25 | 0.00 | 93 | 1012.7 |
| 20260901095517 | 71 | 0 | 0.0 | 0.0 | 0.00 | 0.27 | 0.00 | 93 | 1012.8 |
| 20260901095016 | 71 | 0 | 0.0 | 1.0 | 0.00 | 0.27 | 0.00 | 93 | 1012.7 |
| 20260901094541 | 71 | 0 | 0.0 | 1.0 | 0.00 | 0.27 | 0.00 | 93 | 1012.7 |
| 20260901094018 | 71 | 0 | 0.0 | 1.0 | 0.00 | 0.27 | 0.00 | 93 | 1012.7 |
| 20260901093519 | 71 | 0 | 0.0 | 1.0 | 0.00 | 0.27 | 0.00 | 92 | 1012.7 |
| 20260901093038 | 71 | 0 | 0.0 | 1.0 | 0.00 | 0.27 | 0.00 | 92 | 1012.7 |
| 20260901092516 | 71 | 0 | 0.0 | 0.0 | 0.00 | 0.27 | 0.00 | 92 | 1012.7 |
| 20260901092019 | 72 | 0 | 0.0 | 0.0 | 0.00 | 0.27 | 0.00 | 92 | 1012.7 |
| 20260901091535 | 72 | 0 | 0.0 | 0.0 | 0.00 | 0.27 | 0.00 | 92 | 1012.7 |
| 20260901091016 | 72 | 0 | 0.0 | 0.0 | 0.00 | 0.27 | 0.00 | 92 | 1012.6 |
| 20260901090515 | 72 | 0 | 0.0 | 0.0 | 0.00 | 0.27 | 0.00 | 92 | 1012.6 |
| 20260901090046 | 72 | 0 | 0.0 | 0.0 | 0.00 | 0.27 | 0.00 | 92 | 1012.6 |
| 20260901085516 | 72 | 0 | 0.0 | 0.0 | 0.00 | 0.27 | 0.00 | 91 | 1012.7 |
| 20260901085019 | 72 | 0 | 0.0 | 0.0 | 0.00 | 0.27 | 0.00 | 91 | 1012.6 |
| 20260901084543 | 72 | 0 | 0.0 | 0.0 | 0.00 | 0.27 | 0.00 | 91 | 1012.6 |
| 20260901084022 | 73 | 0 | 0.0 | 0.0 | 0.00 | 0.27 | 0.00 | 91 | 1012.7 |
| 20260901083518 | 73 | 0 | 0.0 | 0.0 | 0.00 | 0.27 | 0.00 | 91 | 1012.7 |
| 20260901083038 | 73 | 0 | 0.0 | 1.0 | 0.00 | 0.27 | 0.00 | 90 | 1012.5 |